User: anonymous   Login
Location: *
(17.3280°S, 114.7300°W)
Time: 17:46:04
(UTC+00:00)
Language:

Cosmos 1758 Rocket - Orbit

View from above orbital plane
View from above orbital plane
View from above satellite
View from above satellite

Ground track
Ground track

The orbit data is extracted from the following two-line orbital elements,

1 16792U 86046B   20298.06856289  .00000085  00000-0  74394-5 0  9999
2 16792  82.4798 129.7447 0023259 216.9406 293.8690 14.83254679856441
Epoch (UTC): 24 October 2020 01:38:43
Eccentricity: 0.0023259
inclination: 82.4798°
perigee height: 603 km
apogee height: 635 km
right ascension of ascending node: 129.7447°
argument of perigee: 216.9406°
revolutions per day: 14.83254679
mean anomaly at epoch: 293.8690°
orbit number at epoch: 85644

The dashed part of the orbit path shows where the satellite is in the earth's shadow,  

DLR